Andrews, TX

12:36 PM CST on December 14, 2019 (GMT -0600)
Andrews

Weather History for KE11 - September, 2019

Change the Weather History Date:

Wednesday, September 18, 2019

  Actual Average (WUND) Record (WUND)
Temperature  
Mean Temperature 78 °F -  
Max Temperature 93 °F - - (-1)
Min Temperature 64 °F - - (-1)
Cooling Degree Days 14    
Growing Degree Days 28 (Base 50)    
Moisture  
Dew Point 57 °F    
Average Humidity 49    
Maximum Humidity 74    
Minimum Humidity 27    
Precipitation  
Precipitation 0.21 in - - ()
Sea Level Pressure  
Sea Level Pressure 30.01 in    
Wind  
Wind Speed 5 mph ()    
Max Wind Speed 9 mph    
Max Gust Speed 10 mph    
Visibility 9.9 miles    
Events Rain    
Averages and records for this station are not official NWS values.
T = Trace of Precipitation, MM = Missing Value Source: Averaged Metar Reports

Daily Weather History Graph

Daily Weather History Graph

Search for Another Location

Airport or City:

Astronomy

Sep. 18, 2019 Rise Set
Actual Time 7:35 AM CDT 7:52 PM CDT
Civil Twilight 7:11 AM CDT 8:16 PM CDT
Nautical Twilight 6:42 AM CDT 8:45 PM CDT
Astronomical Twilight 6:13 AM CDT 9:14 PM CDT
Moon 10:41 PM CDT (9/18) 11:28 AM CDT (9/18)
Length of Visible Light 13h 05m
Length of Day
12h 16m
Waning Gibbous, 82% of the Moon is Illuminated
Sep 18
Waning Gibbous
Sep 21
Last Quarter
Sep 28
New
Oct 5
First Quarter
Oct 13
Full

Hourly Weather History & Observations

Time (CDT) Temp. Heat Index Dew Point Humidity Pressure Visibility Wind Dir Wind Speed Gust Speed Precip Events Conditions
12:15 AM 73.4 °F - 56.5 °F 55% 30.02 in 10.0 mi SSE 4.6 mph - N/A   Clear
12:35 AM 72.3 °F - 56.5 °F 57% 30.02 in 10.0 mi SSE 5.8 mph - N/A   Clear
12:55 AM 72.7 °F - 56.5 °F 57% 30.02 in 10.0 mi SSE 5.8 mph - N/A   Clear
1:15 AM 72.0 °F - 56.5 °F 58% 30.02 in 10.0 mi SSE 4.6 mph - N/A   Clear
1:55 AM 70.3 °F - 56.3 °F 61% 30.02 in 10.0 mi South 4.6 mph - N/A   Clear
2:15 AM 70.3 °F - 56.3 °F 61% 30.02 in 10.0 mi SSE 6.9 mph - N/A   Clear
2:35 AM 70.7 °F - 56.1 °F 60% 30.02 in 10.0 mi SSE 8.1 mph - N/A   Clear
3:15 AM 69.4 °F - 55.9 °F 62% 30.01 in 10.0 mi SSE 5.8 mph - N/A   Clear
3:35 AM 68.5 °F - 55.9 °F 64% 30.01 in 10.0 mi South 5.8 mph - N/A   Clear
3:55 AM 68.2 °F - 55.8 °F 64% 30.00 in 10.0 mi SSE 4.6 mph - N/A   Clear
4:15 AM 68.0 °F - 55.8 °F 65% 30.00 in 10.0 mi SSE 4.6 mph - N/A   Clear
4:35 AM 68.4 °F - 55.8 °F 64% 30.00 in 10.0 mi South 4.6 mph - N/A   Clear
4:55 AM 67.8 °F - 55.8 °F 65% 30.00 in 10.0 mi SSE 3.5 mph - N/A   Clear
5:15 AM 67.1 °F - 55.6 °F 66% 30.00 in 10.0 mi South 4.6 mph - N/A   Clear
5:35 AM 66.7 °F - 55.6 °F 67% 30.00 in 10.0 mi South 5.8 mph - N/A   Clear
5:55 AM 67.1 °F - 55.6 °F 66% 30.00 in 10.0 mi South 6.9 mph - N/A   Clear
6:15 AM 66.7 °F - 55.6 °F 67% 30.00 in 10.0 mi SSE 5.8 mph - N/A   Clear
6:35 AM 65.7 °F - 55.8 °F 70% 30.01 in 10.0 mi SSE 3.5 mph - N/A   Clear
6:55 AM 65.5 °F - 55.6 °F 70% 30.02 in 10.0 mi SSE 3.5 mph - N/A   Clear
7:15 AM 64.8 °F - 55.6 °F 72% 30.02 in 10.0 mi Calm Calm - N/A   Clear
7:35 AM 64.4 °F - 55.6 °F 73% 30.02 in 10.0 mi SSE 4.6 mph - N/A   Clear
7:55 AM 64.6 °F - 56.3 °F 74% 30.02 in 10.0 mi SE 4.6 mph - N/A   Clear
8:15 AM 66.2 °F - 56.5 °F 71% 30.03 in 10.0 mi SSE 3.5 mph - N/A   Clear
8:35 AM 68.2 °F - 56.7 °F 67% 30.03 in 10.0 mi SSE 3.5 mph - N/A   Clear
8:55 AM 70.7 °F - 57.2 °F 62% 30.04 in 10.0 mi SSE 4.6 mph - N/A   Clear
9:15 AM 73.8 °F - 57.4 °F 56% 30.04 in 10.0 mi South 4.6 mph - N/A   Clear
9:35 AM 76.6 °F - 57.6 °F 52% 30.04 in 10.0 mi South 9.2 mph - N/A   Clear
9:55 AM 79.2 °F - 57.4 °F 47% 30.05 in 10.0 mi South 6.9 mph - N/A   Clear
10:15 AM 81.0 °F 81.1 °F 57.7 °F 45% 30.05 in 10.0 mi South 9.2 mph - N/A   Clear
10:35 AM 82.8 °F 82.5 °F 58.3 °F 43% 30.06 in 10.0 mi South 8.1 mph - N/A   Clear
10:55 AM 83.8 °F 83.4 °F 58.5 °F 42% 30.06 in 10.0 mi South 6.9 mph - N/A   Clear
11:15 AM 85.8 °F 85.0 °F 58.1 °F 39% 30.06 in 10.0 mi South 9.2 mph - N/A   Clear
11:35 AM 86.7 °F 85.9 °F 58.1 °F 38% 30.06 in 10.0 mi South 6.9 mph - N/A   Clear
11:55 AM 87.4 °F 86.3 °F 57.6 °F 36% 30.06 in 10.0 mi SSW 5.8 mph - N/A   Clear
12:15 PM 88.5 °F 86.9 °F 56.3 °F 33% 30.06 in 10.0 mi Calm Calm - N/A   Clear
12:35 PM 90.1 °F 88.6 °F 56.3 °F 32% 30.05 in 10.0 mi WSW 4.6 mph - N/A   Clear
12:55 PM 90.7 °F 89.0 °F 56.3 °F 31% 30.04 in 10.0 mi SSW 4.6 mph - N/A   Clear
1:15 PM 91.2 °F 89.4 °F 55.8 °F 30% 30.04 in 10.0 mi SSE 5.8 mph - N/A   Clear
1:35 PM 92.3 °F 90.5 °F 55.4 °F 29% 30.03 in 10.0 mi SSE 5.8 mph - N/A   Clear
1:55 PM 91.4 °F 89.6 °F 56.1 °F 30% 30.03 in 10.0 mi ESE 5.8 mph - N/A   Scattered Clouds
2:15 PM 91.9 °F 90.0 °F 55.0 °F 29% 30.02 in 10.0 mi ESE 8.1 mph - N/A   Scattered Clouds
2:35 PM 93.4 °F 91.3 °F 54.5 °F 27% 30.00 in 10.0 mi ESE 8.1 mph - N/A   Scattered Clouds
2:50 PM 90.5 °F 88.1 °F 53.6 °F 28% 30.00 in 10.0 mi Calm Calm - N/A   Mostly Cloudy
3:15 PM 91.9 °F 89.5 °F 53.6 °F 27% 29.99 in 10.0 mi SSE 6.9 mph - N/A   Overcast
3:35 PM 90.9 °F 88.5 °F 53.1 °F 28% 29.98 in 10.0 mi SSE 9.2 mph - N/A   Mostly Cloudy
3:55 PM 90.0 °F 87.7 °F 54.1 °F 29% 29.98 in 10.0 mi South 3.5 mph - N/A Rain Light Rain
4:15 PM 79.3 °F - 62.4 °F 56% 29.99 in 4.0 mi NNW 5.8 mph 10.4 mph 0.12 in Rain Heavy Rain
4:35 PM 81.7 °F 83.3 °F 64.6 °F 56% 29.98 in 7.0 mi East 8.1 mph - 0.21 in Rain Light Rain
4:55 PM 86.2 °F 86.3 °F 61.2 °F 43% 29.97 in 10.0 mi East 4.6 mph - 0.21 in   Mostly Cloudy
5:15 PM 89.4 °F 88.2 °F 57.6 °F 34% 29.96 in 10.0 mi East 5.8 mph - N/A   Scattered Clouds
5:35 PM 89.2 °F 87.7 °F 56.7 °F 33% 29.96 in 10.0 mi ESE 4.6 mph - N/A   Scattered Clouds
5:55 PM 90.5 °F 88.5 °F 55.2 °F 30% 29.96 in 10.0 mi SE 5.8 mph - N/A   Scattered Clouds
6:15 PM 89.8 °F 87.9 °F 55.6 °F 31% 29.96 in 10.0 mi SE 3.5 mph - N/A   Scattered Clouds
6:35 PM 88.0 °F 86.9 °F 57.7 °F 36% 29.96 in 10.0 mi SSE 4.6 mph - N/A   Scattered Clouds
6:55 PM 87.8 °F 86.9 °F 58.3 °F 37% 29.96 in 10.0 mi SE 4.6 mph - N/A   Scattered Clouds
7:15 PM 86.0 °F 85.4 °F 59.4 °F 40% 29.96 in 10.0 mi SE 5.8 mph - N/A   Clear
7:35 PM 84.7 °F 84.2 °F 58.6 °F 41% 29.96 in 10.0 mi SE 5.8 mph - N/A   Clear
7:55 PM 82.8 °F 82.7 °F 59.0 °F 44% 29.97 in 10.0 mi ESE 3.5 mph - N/A   Clear
8:15 PM 81.5 °F 81.7 °F 58.8 °F 46% 29.97 in 10.0 mi ESE 4.6 mph - N/A   Clear
8:35 PM 80.8 °F 81.1 °F 58.3 °F 46% 29.98 in 10.0 mi SE 5.8 mph - N/A   Clear
8:55 PM 79.7 °F - 58.5 °F 48% 29.99 in 10.0 mi SE 4.6 mph - N/A   Clear
9:15 PM 79.0 °F - 58.3 °F 49% 29.99 in 10.0 mi ESE 5.8 mph - N/A   Clear
9:35 PM 78.8 °F - 58.3 °F 49% 30.00 in 10.0 mi SE 5.8 mph - N/A   Clear
9:55 PM 77.4 °F - 58.8 °F 53% 30.00 in 10.0 mi SE 6.9 mph - N/A   Clear
10:15 PM 77.9 °F - 58.3 °F 51% 30.01 in 10.0 mi SE 6.9 mph - N/A   Clear
10:35 PM 77.4 °F - 58.1 °F 51% 30.01 in 10.0 mi SSE 6.9 mph - N/A   Clear
10:55 PM 77.0 °F - 58.3 °F 52% 30.01 in 10.0 mi SE 5.8 mph - N/A   Clear
11:15 PM 76.8 °F - 57.2 °F 51% 30.01 in 10.0 mi SE 5.8 mph - N/A   Clear
11:35 PM 77.4 °F - 56.7 °F 49% 30.01 in 10.0 mi South 8.1 mph - N/A   Clear
11:55 PM 77.9 °F - 56.8 °F 48% 30.00 in 10.0 mi SSE 8.1 mph - N/A   Clear